Regional Weather Roundup
Issued by NWS

Home | Current Version | Previous Version | Text Only | Print | Product List | Glossary On
Versions: 1 2 3 4 5 6 7 8 9 10 11 12 13 14 15 16 17 18 19 20 21 22 23 24 25 26 27 28 29 30 31 32 33 34 35 36 37 38 39 40 41 42 43 44 45 46 47 48 49 50
131
ASUS42 KFFC 232310
RWRGA
WEATHER ROUNDUP FOR GEORGIA
NATIONAL WEATHER SERVICE PEACHTREE CITY GA
600 PM EST THU NOV 23 2017

NOTE: "FAIR" INDICATES FEW OR NO CLOUDS BELOW 12,000 FEET WITH NO
SIGNIFICANT WEATHER AND/OR OBSTRUCTIONS TO VISIBILITY.

* = USE WITH CAUTION. THE STATIONS MARKED WITH AN ASTERISK MAY NOT
REPORT WEATHER SUCH AS PRECIPITATION, FOG, OR THUNDER AND ARE NOT
QUALITY CONTROLLED BY NWS.

THE REMARK "TC" DENOTES TEMPERATURE READING IN DEGREES CELSIUS.

GAZ001>058-240000-
NORTH GEORGIA

CITY           SKY/WX    TMP DP  RH WIND       PRES   REMARKS
ATLANTA        PTCLDY    56  40  55 E6        29.99S
ATHENS         CLEAR     47  39  74 CALM      30.01R
CHAMBLEE       PTCLDY    51  40  65 CALM      29.99S
PEACHTREE CITY CLEAR     52  43  71 CALM      30.00R
ROME           CLEAR     52  40  63 CALM      30.00R
WEST ATLANTA   CLEAR     53  41  63 CALM      29.99S
GAINESVILLE    CLEAR     52  33  48 SE3       30.01S
CARTERSVILLE   CLEAR     46  40  79 CALM      30.01R


CITY           SKY/WX    TMP DP  RH WIND       PRES   REMARKS
DALTON*        CLEAR     50  37  62 CALM      30.03S
LAWRENCEVILLE* CLEAR     51  37  58 CALM      30.01R
MARIETTA       CLEAR     53  41  64 CALM      29.99R
KENNESAW*      CLEAR     55  37  50 CALM      30.01R
CANTON*        CLEAR     57  34  41 CALM      30.01R
$$

GAZ059>098-102>109-240000-
CENTRAL GEORGIA

CITY           SKY/WX    TMP DP  RH WIND       PRES   REMARKS
AUGUSTA-BUSH   PTCLDY    51  42  71 E3        30.00S
AUGUSTA-DANIEL CLEAR     54  41  61 NE6       30.01S
COLUMBUS       CLEAR     62  50  64 E3        29.96R
MACON          MOCLDY    56  44  64 NE6       29.98S
ROBINS AFB     PTCLDY    58  45  63 CALM      29.97S


CITY           SKY/WX    TMP DP  RH WIND       PRES   REMARKS
LAGRANGE*      CLEAR     53  52  97 CALM      29.98S
SYLVANIA*      CLOUDY    51  46  82 NE5       30.02S
MILLEDGEVILLE* MOCLDY    57  45  62 E5        30.00R
$$

GAZ099>101-110>166-240000-
SOUTH GEORGIA

CITY           SKY/WX    TMP DP  RH WIND       PRES   REMARKS
SAVANNAH       CLOUDY    49  48  97 N7        29.99S FOG
VALDOSTA       CLOUDY    56  54  93 N9        29.94R
ALMA           CLOUDY    54  51  90 VRB3      29.96R
ST SIMONS      CLOUDY    59  59 100 N12       29.94R
FT STEWART     CLOUDY    50  49  94 NE10      29.95F
ALBANY         MOCLDY    62  52  69 N5        29.94R
HUNTER AFB     CLOUDY    50  47  92 N3        29.95S
MOODY AFB      LGT RAIN  55  55  98 N9        29.94R
BRUNSWICK      DRIZZLE   55  54  94 N8        29.96R


CITY           SKY/WX    TMP DP  RH WIND       PRES   REMARKS
BAINBRIDGE*    PTCLDY    61  59  94 CALM      29.95R
MOULTRIE*      MOCLDY    59  54  82 NE6       29.96R
VIDALIA*       CLOUDY    54  48  82 NE7       29.99R
WAYCROSS*      CLOUDY    54  51  90 NE9       29.96R
DOUGLAS*       CLOUDY    54  52  94 NE6       29.98R
$$




USA.gov is the U.S. government's official web portal to all federal, state and local government web resources and services.